CKK2921 ZSPD-RJBB

Flight info

Callsign CKK2921
Flight time N/A
Altitude 35000
Route LAM81D LAMEN/N0479F350 A593 SADLI Y590 BEDAR Y591 FUE Y35 IGLEV
Aircraft B77L/H-SDE1E2E3FGHIJ2J3J4J5M1RWXY/LB1D1

Departure

Time N/A
Airport Shanghai Pudong International Airport (ZSPD)

Arrival

Time 2026-04-30 18:09
Airport Kansai International Airport (RJBB)
Time Latitude Longitude Altitude Speed Heading
2026-04-30 17:39 33.75712 132.57136 34279 ft 603 kts 77°
2026-04-30 17:41 33.85698 132.94119 30344 ft 563 kts 79°
2026-04-30 17:42 33.87794 133.03044 29393 ft 552 kts 81°
2026-04-30 17:42 33.90826 133.16209 27951 ft 539 kts 81°
2026-04-30 17:43 33.92808 133.24809 26993 ft 530 kts 81°
2026-04-30 17:44 33.95746 133.37593 25565 ft 532 kts 81°
2026-04-30 17:44 33.98655 133.50272 24150 ft 518 kts 80°
2026-04-30 17:46 34.03300 133.70639 21761 ft 495 kts 80°
2026-04-30 17:47 34.05937 133.86592 17731 ft 471 kts 89°
2026-04-30 17:48 34.06961 134.01584 14456 ft 434 kts 90°
2026-04-30 17:48 34.07661 134.12007 12320 ft 405 kts 90°
2026-04-30 17:49 34.08419 134.24275 11970 ft 334 kts 94°
2026-04-30 17:50 34.08933 134.34924 11973 ft 322 kts 69°
2026-04-30 17:51 34.12546 134.41751 11977 ft 320 kts 86°
2026-04-30 17:52 34.10088 134.48122 11960 ft 277 kts 162°
2026-04-30 17:53 34.01482 134.49155 11972 ft 260 kts 162°
2026-04-30 17:54 33.94900 134.52814 11961 ft 261 kts 162°
2026-04-30 17:55 33.90065 134.59413 11969 ft 291 kts 117°
2026-04-30 17:56 33.92500 134.68268 10461 ft 324 kts 23°
2026-04-30 17:57 33.99119 134.69083 8969 ft 321 kts
2026-04-30 17:58 34.05570 134.70203 7539 ft 305 kts
2026-04-30 17:59 34.13271 134.71713 6965 ft 256 kts 12°
2026-04-30 18:00 34.17771 134.78102 5920 ft 271 kts 66°
2026-04-30 18:00 34.20571 134.84291 4056 ft 280 kts 66°
2026-04-30 18:01 34.22281 134.88049 3975 ft 232 kts 68°
2026-04-30 18:02 34.24490 134.92955 3955 ft 216 kts 69°
2026-04-30 18:02 34.27239 134.97450 3007 ft 229 kts 58°
2026-04-30 18:03 34.30097 135.01656 2468 ft 193 kts 59°
2026-04-30 18:04 34.32536 135.05403 2481 ft 188 kts 59°
2026-04-30 18:05 34.35813 135.10205 2149 ft 173 kts 59°
2026-04-30 18:06 34.38511 135.14200 1377 ft 146 kts 57°
2026-04-30 18:07 34.41070 135.17914 479 ft 144 kts 52°
2026-04-30 18:08 34.42918 135.20711 96 ft 143 kts 51°
2026-04-30 18:09 34.44107 135.22690 15 ft 18 kts 83°
2026-04-30 18:10 34.43945 135.22606 15 ft 12 kts 244°
2026-04-30 18:11 34.43629 135.22559 15 ft 16 kts 140°
2026-04-30 18:11 34.43347 135.22836 15 ft 18 kts 141°
2026-04-30 18:12 34.43002 135.23177 15 ft 39 kts 143°
2026-04-30 18:13 34.42726 135.23442 15 ft 7 kts 139°
2026-04-30 18:13 34.42578 135.23587 15 ft 12 kts 151°
2026-04-30 18:14 34.42489 135.23454 15 ft 1 kts 316°
2026-04-30 18:15 34.42522 135.23416 15 ft 0 kts 322°